Location: Unspecified
(0.0000°N, 0.0000°E)
Time: 20:59:39
(UTC+00:00)

Tiros 1 despin weight - All Passes

Search period start: 19 February 2017 00:00
Search period end: 01 March 2017 00:00
Orbit: 595 x 645 km, 48.2° (Epoch: 18 February)

Date Brightness Start Highest point End Pass type
(mag) Time Alt. Az. Time Alt. Az. Time Alt. Az.
19 Feb - 01:13:45 10° NNW 01:18:22 68° NE 01:22:56 10° SE night (unlit)
19 Feb - 13:22:17 10° SW 13:26:44 71° NW 13:31:13 10° NNE daylight
19 Feb - 23:51:15 10° NNE 23:53:54 15° NE 23:56:33 10° E night (unlit)
20 Feb - 01:31:00 10° WNW 01:35:23 42° SW 01:39:44 10° SSE night (unlit)
20 Feb - 11:58:51 10° S 12:02:21 23° SE 12:05:52 10° ENE daylight
20 Feb - 13:40:06 10° WSW 13:43:46 25° NW 13:47:28 10° N daylight
21 Feb - 00:06:39 10° NNW 00:10:59 38° NE 00:15:18 10° ESE night (unlit)
21 Feb - 01:49:34 10° W 01:52:26 16° SW 01:55:16 10° SSW night (unlit)
21 Feb - 12:14:59 10° SSW 12:19:23 64° SE 12:23:49 10° NE daylight
22 Feb - 00:23:21 10° NW 00:28:01 75° SW 00:32:37 10° SE night (unlit)
22 Feb - 10:52:51 10° SSE 10:54:59 13° SE 10:57:05 10° ESE daylight
22 Feb - 12:32:11 10° WSW 12:36:23 43° NW 12:40:38 10° NNE daylight
22 Feb - 22:59:54 10° N 23:03:35 23° NE 23:07:16 10° ESE night (unlit)
23 Feb - 00:41:05 10° WNW 00:45:02 27° SW 00:48:57 10° S night (unlit)
23 Feb - 11:07:59 10° SSW 11:12:02 35° SE 11:16:06 10° ENE daylight
23 Feb - 12:50:43 10° W 12:53:27 16° NW 12:56:13 10° NNW daylight
23 Feb - 23:16:00 10° NNW 23:20:38 62° NE 23:25:14 10° SE night (unlit)
24 Feb - 01:01:32 10° WSW 01:02:07 10° SW 01:02:42 10° SW night (unlit)
24 Feb - 11:24:37 10° SW 11:29:03 78° NW 11:33:29 10° NE daylight
24 Feb - 21:53:46 10° NNE 21:56:09 14° NE 21:58:31 10° E night (unlit)
24 Feb - 23:33:09 10° NW 23:37:38 46° SW 23:42:06 10° SSE night (unlit)
25 Feb - 10:01:22 10° S 10:04:40 20° SE 10:07:58 10° E daylight
25 Feb - 11:42:19 10° WSW 11:46:04 27° NW 11:49:50 10° N daylight
25 Feb - 22:08:57 10° NNW 22:13:14 35° NE 22:17:31 10° ESE night (unlit)
25 Feb - 23:51:32 10° W 23:54:41 18° SW 23:57:49 10° S night (unlit)
26 Feb - 10:17:21 10° SSW 10:21:42 57° SE 10:26:03 10° NE daylight
26 Feb - 22:25:34 10° NW 22:30:15 83° SW 22:34:56 10° SE night (unlit)
27 Feb - 08:55:36 10° SSE 08:57:16 12° SE 08:58:56 10° ESE daylight
27 Feb - 10:34:28 10° SW 10:38:42 47° NW 10:42:58 10° NNE daylight
27 Feb - 21:02:16 10° N 21:05:49 21° NE 21:09:22 10° E night (unlit)
27 Feb - 22:43:10 10° WNW 22:47:16 30° SW 22:51:21 10° S night (unlit)
28 Feb - 09:10:24 10° SSW 09:14:20 32° SE 09:18:17 10° ENE daylight
28 Feb - 10:52:49 10° W 10:55:45 17° NW 10:58:41 10° N daylight
28 Feb - 21:18:15 10° NNW 21:22:52 56° NE 21:27:27 10° SE night (unlit)
28 Feb - 23:02:47 10° WSW 23:04:21 11° SW 23:05:55 10° SSW night (unlit)
